Regional Weather Roundup
Issued by NWS Newport/Morehead, NC

Current Version | Previous Version | Graphics & Text | Print | Product List | Glossary Off
Versions: 1 2 3 4 5 6 7 8 9 10 11 12 13 14 15 16 17 18 19 20 21 22 23 24 25 26 27 28 29 30 31 32 33 34 35 36 37 38 39 40 41 42 43 44 45 46 47 48 49 50

000
ASUS42 KMHX 071913
RWRMHX
WEATHER ROUNDUP FOR EASTERN NORTH CAROLINA
NATIONAL WEATHER SERVICE NEWPORT/MOREHEAD CITY NC
300 PM EDT TUE JUL 07 2015

NOTE: "FAIR" INDICATES FEW OR NO CLOUDS BELOW 12,000 FEET
WITH NO SIGNIFICANT WEATHER AND/OR OBSTRUCTIONS TO VISIBILITY

NCZ015>017-031-032-045>047-102-103-072000-
NORTH COAST

CITY           SKY/WX    TMP DP  RH WIND       PRES   REMARKS
EDENTON          N/A     89  73  59 S8        30.09S
ELIZABETH CITY SUNNY     89  74  60 S13       30.08F
KITTY HAWK     CLEAR     94  69  43 S6        30.08F
MANTEO         SUNNY     89  71  54 S10       30.10S

$$

NCZ045>047-081-094-103-104-072000-
CENTRAL COAST

CITY           SKY/WX    TMP DP  RH WIND       PRES   REMARKS
FRISCO         SUNNY     84  74  71 SW9G21    30.13F
SWANQUARTER      N/A     88 N/A N/A S9G15     30.06F

$$

NCZ095-097-098-100-101-072000-
SOUTHERN COAST

CITY           SKY/WX    TMP DP  RH WIND       PRES   REMARKS
BEAUFORT       MOSUNNY   85  77  77 S16       30.13F
CEDAR ISLAND     N/A     88 N/A N/A S10G17    30.15F
JACKSONVILLE   CLOUDY    87  74  64 MISG      30.11F
PINEY ISLAND   PTCLDY   N/A N/A N/A SW14G21   30.11F
WILMINGTON     PTSUNNY   90  71  53 S14       30.11F


$$

NCZ011>013-027>030-043-044-078>080-089-090>093-098-072000-
COASTAL PLAIN

CITY           SKY/WX    TMP DP  RH WIND       PRES   REMARKS
AHOSKIE        SUNNY     88  73  61 S7        30.08S
CLINTON        MOSUNNY   92  71  50 S6        30.10F
ELIZABETHTOWN  MOSUNNY   91  69  49 S8        30.11F
GOLDSBORO      MOSUNNY   93  70  47 SW8       30.06F
GREENVILLE     SUNNY     91  72  52 SW7       30.10F
HAVELOCK       SUNNY     89  71  55 SW14G21   30.12F
KENANSVILLE    MOSUNNY   90  69  49 S3        30.11F
KINSTON        MOSUNNY   91  68  46 S8        30.09F
NEW BERN       MOSUNNY   90  73  57 S12       30.11F
RICHLANDS      PTSUNNY   91  70  49 S9        30.10F
ROCKY MOUNT    MOSUNNY   93  69  45 SW9G18    30.08F
WASHINGTON     MOSUNNY   89  70  52 S5        30.09F
WHITEVILLE     PTSUNNY   88  72  57 S7        30.11S

$$

AMZ130-135-150-152-154-156-158-170-250-252-270-ANZ085-086-088-633-658-670-072000-
MARINE OBSERVATIONS

STATION/POSITION TIME  TEMP    WIND        PRES    WAVE   SWELL
                       AIR SEA DIR/SP/G            HT/PER HT/PER
                 (UTC) (F)     (DEG/KT/KT) (MB)    (FT/S) (FT/S)
CHESAPEAKE LIGHT 1900   81     180/ 17/ 18 1018.4
64 E VA BEACH    1850   78 77  190/ 12/ 14 1018.8    3/ 8   2/ 8
DUCK             1800   85 67  220/  8/ 11   N/A
2 E DUCK         1811      77                N/A     2/13   2/13
OREGON INLET     1800   81 83  190/ 15/ 19 1019.6
13E OREGON INLT  1900      80                N/A     3/ 8   2/14
HATTERAS CG      1800   82 81  200/ 10/ 16 1020.2
DIAMOND BUOY     1850   81 83  220/ 16/ 17 1020.3    3/ 9   2/ 9
CAPE LOOKOUT     1900   82     190/ 12/ 14 1020.1
BEAUFORT LAB     1800   82 81  200/ 12/ 17 1019.9
30 SE NEW RVR IN NOT AVBL
27 SE WRIGHTSVLE 1800      81  210/ 10/ 12   N/A
5 SE WRIGHTSVLE  1808   80 79  200/ 16/ 19 1020.4
225 S CAPE HAT   1850   83 82  210/ 12/ 14 1023.0    4/ 9   3/ 9
41 SE CHARLESTON 1850   82 83  200/ 10/ 12 1020.4    3/ 8   3/ 8

$$



USA.gov is the U.S. government's official web portal to all federal, state and local government web resources and services.